Weather History for Delhi, ON

Change the Weather History Date:

Sunday, October 14, 2012

  Actual Average Record
Temperature  
Mean Temperature 59 °F -  
Max Temperature 72 °F - - ()
Min Temperature 46 °F - - ()
Degree Days  
Heating Degree Days 6    
Growing Degree Days 9 (Base 50)    
Moisture  
Dew Point 57 °F    
Average Humidity 80    
Maximum Humidity 91    
Minimum Humidity 56    
Precipitation  
Precipitation 0.12 in - - ()
Sea Level Pressure  
Sea Level Pressure 29.78 in    
Wind  
Wind Speed 9 mph ()    
Max Wind Speed 15 mph    
Max Gust Speed 28 mph    
T = Trace of Precipitation, MM = Missing Value Source: Averaged Metar Reports

Daily Weather History Graph

Daily Weather History Graph

Search for Another Location

Airport:

Trip Planner

Search our weather history database for the weather conditions in past years. The results will help you decide how hot, cold, wet, or windy it might be!

Date:

Astronomy

Oct. 14, 2012 Rise Set
Actual Time 7:34 AM EDT 6:40 PM EDT
Civil Twilight 7:06 AM EDT 7:08 PM EDT
Nautical Twilight 6:33 AM EDT 7:41 PM EDT
Astronomical Twilight 6:00 AM EDT 8:14 PM EDT
Moon 6:31 AM EDT (10/14) 5:59 PM EDT (10/14)
Length of Visible Light 12h 02m
Length of Day
11h 05m
Waning Crescent, 1% of the Moon is Illuminated
Oct 14
Waning Crescent
Oct 15
New
Oct 21
First Quarter
Oct 29
Full
Nov 6
Last Quarter

Hourly Weather History & Observations

Time (EDT) Temp. Dew Point Humidity Pressure Visibility Wind Dir Wind Speed Gust Speed Precip Events Conditions
12:00 AM 55.8 °F 52.5 °F 89% 29.90 in - SSW 8.1 mph - N/A   Unknown
1:00 AM 57.2 °F 54.3 °F 90% 29.89 in - SSW 8.1 mph - N/A   Unknown
2:00 AM 59 °F 56 °F 86% 29.87 in - SSW 10.4 mph - -  
2:00 AM 58.6 °F 55.9 °F 91% 29.87 in - SSW 10.4 mph - 0.02 in   Unknown
3:00 AM 60.8 °F 57.0 °F 87% 29.87 in - SW 9.2 mph 19.6 mph N/A   Unknown
4:00 AM 60.6 °F 57.6 °F 90% 29.86 in - SW 8.1 mph - 0.05 in   Unknown
5:00 AM 61.7 °F 59.0 °F 91% 29.86 in - SW 6.9 mph - 0.05 in   Unknown
6:00 AM 62.6 °F 59.4 °F 89% 29.86 in - SW 8.1 mph - N/A   Unknown
7:00 AM 61.9 °F 58.5 °F 89% 29.87 in - SW 8.1 mph - N/A   Unknown
8:00 AM 62 °F 58 °F 82% 29.87 in - SSW 9.2 mph - -  
8:00 AM 62.1 °F 57.9 °F 86% 29.87 in - SSW 9.2 mph - N/A   Unknown
9:00 AM 62.8 °F 58.3 °F 85% 29.87 in - SSW 9.2 mph - N/A   Unknown
10:00 AM 64.4 °F 58.5 °F 81% 29.86 in - SSW 10.4 mph 17.3 mph N/A   Unknown
11:00 AM 65.7 °F 57.6 °F 75% 29.83 in - SSW 11.5 mph 20.7 mph N/A   Unknown
12:00 PM 66.2 °F 56.8 °F 72% 29.81 in - SSW 12.7 mph 27.6 mph N/A   Unknown
2:00 PM 69 °F 57 °F 56% 29.74 in - South 12.7 mph - -  
2:00 PM 68.5 °F 56.8 °F 66% 29.74 in - South 12.7 mph 23.0 mph N/A   Unknown
3:00 PM 72.1 °F 57.9 °F 61% 29.70 in - South 13.8 mph 26.5 mph N/A   Unknown
4:00 PM 68.9 °F 55.9 °F 63% 29.69 in - SSW 11.5 mph 18.4 mph N/A   Unknown
6:00 PM 63.3 °F 59.4 °F 87% 29.67 in - SSW 11.5 mph 20.7 mph 0.04 in   Unknown
7:00 PM 64.0 °F 59.7 °F 86% 29.63 in - South 11.5 mph 18.4 mph 0.01 in   Unknown
8:00 PM 65 °F 60 °F 77% 29.60 in - South 12.7 mph - -  
8:00 PM 64.6 °F 59.5 °F 84% 29.60 in - South 12.7 mph 19.6 mph 0.01 in   Unknown
10:00 PM 65.3 °F 57.2 °F 75% 29.54 in - South 12.7 mph 20.7 mph N/A   Unknown
11:00 PM 66.7 °F 56.3 °F 69% 29.51 in - South 15.0 mph 25.3 mph N/A   Unknown